Tiempo atmosférico en la estación meteorológica de Almadén de la Plata, Sevilla (450 m.)



Fecha
DESCASC
Temp. máxima en grados centígrados (hora)
DESCASC
Temp. mínima en grados centígrados (hora)
DESCASC
Temp. media en grados centígrados
DESCASC
Racha de viento máxima en m/sg (hora)
DESCASC
Velocidad máxima media en intervalos de 10 minutos(hora)
DESCASC
Precipitaciones diarias en mm
DESCASC
Precipitaciones de 00:00 a 06:00 en mm
DESCASC
Precipitaciones de 06:00 a 12:00 en mm
DESCASC
Precipitaciones de 12:00 a 18:00 en mm
DESCASC
Precipitaciones de 18:00 a 24:00 en mm
DESCASC
18-01-2018 17.8 (15:20) 6.6 (09:10) 12.2 7.22 (12:50) 3.89 (13:10) 0 0 0 0 0
17-01-2018 17.8 (15:50) 6.1 (09:10) 11.9 6.67 (12:40) 2.78 (04:10) 0 0 0 0 0
16-01-2018 17.5 (16:40) 3.1 (05:20) 10.3 5.56 (19:30) 2.5 (19:30) 0 0 0 0 0
15-01-2018 13.5 (15:20) 1.3 (04:20) 7.4 5.83 (13:20) 2.78 (11:20) 0 0 0 0 0
14-01-2018 10.3 (15:20) 2.7 (00:00) 6.5 6.67 (14:10) 3.61 (14:10) -- -- -- 0 0
13-01-2018 9.2 (17:20) 3.6 (00:00) 6.4 5 (16:10) 2.5 (16:50) -- -- -- -- --
12-01-2018 -- (--) -- (--) -- -- (--) -- (--) -- -- -- -- --
11-01-2018 11.5 (16:40) 4.8 (00:00) 8.2 10.28 (15:20) 5.28 (14:30) -- -- -- -- --
10-01-2018 14.4 (16:10) 6.5 (00:00) 10.4 9.17 (18:40) 4.17 (23:10) -- -- -- -- --
09-01-2018 9.8 (23:30) 1.4 (00:00) 5.6 6.11 (16:20) 2.22 (16:20) -- 0 -- -- --
08-01-2018 9.2 (16:00) 2.5 (00:00) 5.8 5.83 (15:00) 1.94 (05:20) 0.4 0.4 0 0 0
07-01-2018 6.5 (13:00) 1.3 (00:00) 3.9 7.22 (10:00) 3.89 (11:40) 0.2 0 0 0.2 0
06-01-2018 9.9 (16:00) 3.3 (00:00) 6.6 10.56 (15:20) 5.83 (12:00) 0.8 0.8 0 0 0
05-01-2018 12.8 (14:40) 8.8 (00:00) 10.8 7.78 (15:30) 3.89 (15:40) 8.8 0 0 0 8.8
04-01-2018 13.5 (15:00) 9.6 (03:40) 11.6 5 (00:10) 2.22 (20:50) 0 0 0 0 0
03-01-2018 19.6 (15:10) 9.8 (00:00) 14.7 5.83 (00:20) 2.5 (16:10) 0 0 0 0 0
02-01-2018 17.3 (14:50) 5.1 (00:00) 11.2 5.56 (23:50) 2.78 (23:50) 0 0 0 0 0
01-01-2018 15.5 (16:20) 4 (00:00) 9.8 6.94 (00:10) 3.06 (00:30) 0 0 0 0 0
31-12-2017 14.3 (14:50) 8.7 (00:00) 11.5 8.33 (14:40) 3.89 (14:40) 0 0 0 0 0
30-12-2017 18.9 (14:50) 9 (00:00) 13.9 3.89 (11:40) 1.67 (19:30) 0 0 0 0 0
29-12-2017 16 (15:00) 11.7 (00:00) 13.8 7.78 (13:00) 4.17 (13:00) 0 0 0 0 0
28-12-2017 15.1 (14:40) 9.7 (00:00) 12.4 10 (13:50) 5.28 (14:00) 0 0 0 0 0
27-12-2017 12.7 (14:00) 9.2 (00:00) 10.9 11.67 (06:50) 6.11 (16:30) 2.2 2 0.2 0 0
26-12-2017 10.6 (05:10) 6.6 (00:00) 8.6 8.61 (23:40) 3.33 (23:59) 0 0 0 0 0
25-12-2017 10.6 (16:30) 5.5 (00:00) 8.1 7.5 (11:50) 3.33 (12:00) 0.2 0 0 0 0.2
24-12-2017 14.7 (15:10) 6.4 (00:00) 10.5 7.5 (12:00) 3.89 (11:50) 0 0 0 0 0

Gráficas

Temp. máximas Temp. mínimas Temp. medias Precipitaciones Rachas de viento máximas Velocidades máximas media en intervalos de 10 minutos

Datos horarios

Fecha y hora oficial Temperatura (ºC) Velocidad del viento (km/h) Dirección del viento Racha (km/h) Dirección de racha Precipitación (mm) Presión (hPa) Tendencia (hPa) Humedad (%)
2018-01-22 23:00:00 9 0 Calma 5 Noroeste 0 -- -- 72
2018-01-22 22:00:00 9.8 0 Calma 8 Oeste 0 -- -- 71
2018-01-22 21:00:00 10.3 0 Calma 8 Norte 0 -- -- 75
2018-01-22 20:00:00 11.7 0 Calma 4 Noroeste 0 -- -- 75
2018-01-22 19:00:00 14 0 Calma 10 Sudoeste 0 -- -- 76
2018-01-22 18:00:00 16.8 5 Sur 15 Sudeste 0 -- -- 67
2018-01-22 17:00:00 19.7 6 Sudeste 17 Sudeste 0 -- -- 55
2018-01-22 16:00:00 20.4 5 Noroeste 12 Noroeste 0 -- -- 47
2018-01-22 15:00:00 19.6 4 Noroeste 15 Oeste 0 -- -- 50
2018-01-22 14:00:00 18.4 5 Oeste 12 Noroeste 0 -- -- 49
2018-01-22 13:00:00 17.6 5 Oeste 9 Noroeste 0 -- -- 57
2018-01-22 12:00:00 16.6 0 Calma 5 Nordeste 0 -- -- 61
2018-01-22 11:00:00 13 0 Calma 4 Noroeste 0 -- -- 78
2018-01-22 10:00:00 9.6 0 Calma 3 Oeste 0 -- -- 95
2018-01-22 09:00:00 6.7 0 Calma 4 Sudoeste 0 -- -- 96
2018-01-22 08:00:00 6.9 0 Calma 3 Oeste 0 -- -- 95
2018-01-22 07:00:00 7.4 0 Calma 5 Oeste 0 -- -- 95
2018-01-22 06:00:00 7.4 3 Oeste 7 Sudoeste 0 -- -- 95
2018-01-22 05:00:00 7.8 4 Sudoeste 8 Sudoeste 0 -- -- 95
2018-01-22 04:00:00 7.6 2 Oeste 6 Oeste 0 -- -- 93
2018-01-22 03:00:00 8.5 0 Calma 5 Noroeste 0 -- -- 91
2018-01-22 02:00:00 9.4 3 Oeste 10 Noroeste 0 -- -- 91
2018-01-22 01:00:00 8.6 3 Oeste 7 Norte 0 -- -- 91
2018-01-22 00:00:00 8.2 0 Calma 4 Oeste 0 -- -- 89
2018-01-21 23:00:00 8.6 0 Calma 3 Sudeste 0 -- -- 87
2018-01-21 22:00:00 9.4 0 Calma 4 Nordeste 0 -- -- 81
2018-01-21 21:00:00 10.4 0 Calma 4 Noroeste 0 -- -- 79
2018-01-21 20:00:00 11.6 3 Este 6 Este 0 -- -- 75
2018-01-21 19:00:00 13.1 0 Calma 6 Nordeste 0 -- -- 69
2018-01-21 18:00:00 16.9 0 Calma 11 Norte 0 -- -- 58
2018-01-21 17:00:00 19.3 3 Norte 15 Norte 0 -- -- 52
2018-01-21 16:00:00 19.7 4 Norte 14 Noroeste 0 -- -- 51
2018-01-21 15:00:00 19.4 3 Norte 12 Este 0 -- -- 53
2018-01-21 14:00:00 18.4 7 Este 15 Este 0 -- -- 55
2018-01-21 13:00:00 17.9 5 Norte 16 Norte 0 -- -- 56
2018-01-21 12:00:00 15.3 3 Norte 8 Noroeste 0 -- -- 63
2018-01-21 11:00:00 12.7 3 Norte 8 Norte 0 -- -- 70
2018-01-21 10:00:00 9.9 0 Calma 3 Norte 0 -- -- 76
2018-01-21 09:00:00 8.1 0 Calma 9 Norte 0 -- -- 79
2018-01-21 08:00:00 7.9 4 Noroeste 11 Noroeste 0 -- -- 81
2018-01-21 07:00:00 8.9 7 Noroeste 15 Noroeste 0 -- -- 77
2018-01-21 06:00:00 7.8 5 Noroeste 15 Noroeste 0 -- -- 78
2018-01-21 05:00:00 7.7 5 Noroeste 10 Noroeste 0 -- -- 76
2018-01-21 04:00:00 7.6 3 Noroeste 12 Oeste 0 -- -- 72
2018-01-21 03:00:00 7.8 5 Oeste 12 Oeste 0 -- -- 67
2018-01-21 02:00:00 8.5 5 Noroeste 16 Oeste 0 -- -- 62
2018-01-21 01:00:00 8.7 8 Oeste 14 Noroeste 0 -- -- 61
2018-01-21 00:00:00 8.5 6 Oeste 12 Oeste 0 -- -- 61
2018-01-20 23:00:00 9.2 6 Oeste 11 Oeste 0 -- -- 61
2018-01-20 22:00:00 9.2 5 Oeste 9 Oeste 0 -- -- 57
2018-01-20 21:00:00 9.6 2 Oeste 6 Sudoeste 0 -- -- 51
2018-01-20 20:00:00 11.8 0 Calma 17 Noroeste 0 -- -- 42
2018-01-20 19:00:00 13 7 Oeste 16 Sudoeste 0 -- -- 46
2018-01-20 18:00:00 14.7 6 Sudoeste 12 Sudoeste 0 -- -- 61
2018-01-20 17:00:00 15.8 4 Sudoeste 13 Sudoeste 0 -- -- 60
2018-01-20 16:00:00 18.1 5 Sudoeste 17 Noroeste 0 -- -- 48
2018-01-20 15:00:00 19.7 8 Norte 18 Noroeste 0 -- -- 22
2018-01-20 14:00:00 19.1 4 Norte 14 Norte 0 -- -- 27
2018-01-20 13:00:00 17.6 3 Norte 11 Noroeste 0 -- -- 34
2018-01-20 12:00:00 15.2 4 Noroeste 10 Noroeste 0 -- -- 44
2018-01-20 11:00:00 13.3 2 Noroeste 9 Noroeste 0 -- -- 53
2018-01-20 10:00:00 10 3 Noroeste 7 Noroeste 0 -- -- 66
2018-01-20 09:00:00 6.8 3 Oeste 7 Noroeste 0 -- -- 77
2018-01-20 08:00:00 6.2 0 Calma 6 Sudoeste 0 -- -- 78
2018-01-20 07:00:00 6.9 0 Calma 8 Noroeste 0 -- -- 76
2018-01-20 06:00:00 6.9 2 Oeste 6 Noroeste 0 -- -- 76
2018-01-20 05:00:00 7.5 0 Calma 3 Oeste 0 -- -- 73
2018-01-20 04:00:00 7.5 2 Oeste 6 Oeste 0 -- -- 74
2018-01-20 03:00:00 8.1 0 Calma 2 Sudoeste 0 -- -- 72
2018-01-20 02:00:00 9.2 0 Calma 8 Noroeste 0 -- -- 68
2018-01-20 01:00:00 11.6 8 Noroeste 17 Norte 0 -- -- 60
2018-01-20 00:00:00 10.4 4 Oeste 10 Oeste 0 -- -- 64
2018-01-19 23:00:00 10 4 Oeste 9 Noroeste 0 -- -- 68
2018-01-19 22:00:00 9.9 4 Noroeste 12 Noroeste 0 -- -- 66
2018-01-19 21:00:00 10.8 4 Oeste 9 Oeste 0 -- -- 64
2018-01-19 20:00:00 12.6 6 Noroeste 17 Noroeste 0 -- -- 60
2018-01-19 19:00:00 13.3 5 Noroeste 11 Noroeste 0 -- -- 57
2018-01-19 18:00:00 16.2 3 Noroeste 11 Noroeste 0 -- -- 45
2018-01-19 17:00:00 18.6 5 Noroeste 10 Noroeste 0 -- -- 39
2018-01-19 16:00:00 19.8 3 Nordeste 12 Noroeste 0 -- -- 37
2018-01-19 15:00:00 18.7 5 Norte 18 Norte 0 -- -- 40
2018-01-19 14:00:00 18 9 Nordeste 17 Este 0 -- -- 44
2018-01-19 13:00:00 16.5 8 Nordeste 17 Este 0 -- -- 49
2018-01-19 12:00:00 14.3 3 Nordeste 8 Nordeste 0 -- -- 58
2018-01-19 11:00:00 10.8 0 Calma 4 Norte 0 -- -- 66
2018-01-19 10:00:00 8.1 2 Noroeste 4 Norte 0 -- -- 76
2018-01-19 09:00:00 6.4 0 Calma 6 Noroeste 0 -- -- 78
2018-01-19 08:00:00 6.9 3 Oeste 9 Oeste 0 -- -- 77
2018-01-19 07:00:00 6.6 0 Calma 8 Oeste 0 -- -- 79
2018-01-19 06:00:00 6.7 0 Calma 5 Sudeste 0 -- -- 79
2018-01-19 05:00:00 7.5 2 Sudeste 4 Sudeste 0 -- -- 77
2018-01-19 04:00:00 8 2 Sudeste 4 Sudeste 0 -- -- 75
2018-01-19 03:00:00 7.9 0 Calma 5 Noroeste 0 -- -- 76
2018-01-19 02:00:00 8.2 0 Calma 5 Noroeste 0 -- -- 76
2018-01-19 01:00:00 8.4 0 Calma 6 Noroeste 0 -- -- 76
2018-01-19 00:00:00 8.5 2 Norte 4 Norte 0 -- -- 79
2018-01-18 23:00:00 8.1 0 Calma 5 Oeste 0 -- -- 80
2018-01-18 22:00:00 8.7 0 Calma 3 Noroeste 0 -- -- 74
2018-01-18 21:00:00 9.2 0 Calma 4 Sudeste 0 -- -- 70
2018-01-18 20:00:00 9.7 0 Calma 4 Sudeste 0 -- -- 68
2018-01-18 19:00:00 11.7 4 Sudeste 9 Sudeste 0 -- -- 59
2018-01-18 18:00:00 13.1 3 Este 16 Sudeste 0 -- -- 55
2018-01-18 17:00:00 14.3 8 Sudeste 19 Sudeste 0 -- -- 49
2018-01-18 16:00:00 16.4 10 Sudeste 17 Sudeste 0 -- -- 49
2018-01-18 15:00:00 17.7 7 Este 14 Sudeste 0 -- -- 43
2018-01-18 14:00:00 17 8 Este 24 Este 0 -- -- 42
2018-01-18 13:00:00 15.5 14 Este 26 Este 0 -- -- 47
2018-01-18 12:00:00 14.7 9 Este 19 Este 0 -- -- 50
2018-01-18 11:00:00 13.4 7 Nordeste 15 Nordeste 0 -- -- 54
2018-01-18 10:00:00 10.8 5 Nordeste 12 Este 0 -- -- 62
2018-01-18 09:00:00 6.8 0 Calma 7 Este 0 -- -- 70
2018-01-18 08:00:00 8.2 5 Este 9 Este 0 -- -- 63
2018-01-18 07:00:00 8 4 Este 9 Este 0 -- -- 65
2018-01-18 06:00:00 8.5 6 Este 10 Este 0 -- -- 63
2018-01-18 05:00:00 9.1 8 Este 12 Este 0 -- -- 60
2018-01-18 04:00:00 9.2 5 Este 10 Este 0 -- -- 60
2018-01-18 03:00:00 9.6 6 Nordeste 16 Este 0 -- -- 59
2018-01-18 02:00:00 10.2 10 Nordeste 18 Nordeste 0 -- -- 58
2018-01-18 01:00:00 9.7 6 Este 13 Este 0 -- -- 61
2018-01-18 00:00:00 9.2 7 Nordeste 12 Nordeste 0 -- -- 69
2018-01-17 23:00:00 9.6 5 Nordeste 12 Nordeste 0 -- -- 72
2018-01-17 22:00:00 10.6 4 Nordeste 15 Nordeste 0 -- -- 69
2018-01-17 21:00:00 10.7 6 Este 15 Sudeste 0 -- -- 65
2018-01-17 20:00:00 11.2 5 Nordeste 14 Nordeste 0 -- -- 66
2018-01-17 19:00:00 12.3 6 Nordeste 14 Nordeste 0 -- -- 67
2018-01-17 18:00:00 14.2 6 Nordeste 16 Nordeste 0 -- -- 65
2018-01-17 17:00:00 17 6 Nordeste 19 Nordeste 0 -- -- 55
2018-01-17 16:00:00 17.8 6 Nordeste 20 Nordeste 0 -- -- 53
2018-01-17 15:00:00 17.7 4 Nordeste 12 Nordeste 0 -- -- 57
2018-01-17 14:00:00 16 9 Nordeste 20 Este 0 -- -- 61
2018-01-17 13:00:00 14.8 9 Nordeste 24 Este 0 -- -- 65
2018-01-17 12:00:00 14.1 8 Nordeste 23 Nordeste 0 -- -- 68
2018-01-17 11:00:00 12.6 5 Nordeste 14 Norte 0 -- -- 82
2018-01-17 10:00:00 8.8 0 Calma 7 Nordeste 0 -- -- 98
2018-01-17 09:00:00 6.3 0 Calma 8 Norte 0 -- -- 98
2018-01-17 08:00:00 6.7 2 Norte 9 Noroeste 0 -- -- 99
2018-01-17 07:00:00 7.4 0 Calma 3 Oeste -- -- -- 98
2018-01-17 06:00:00 8.2 0 Calma 12 Norte -- -- -- 98
2018-01-17 05:00:00 9.4 5 Norte 22 Norte -- -- -- 98
2018-01-17 04:00:00 9.5 9 Norte 23 Norte -- -- -- 100
2018-01-17 03:00:00 8.2 7 Norte 14 Noroeste -- -- -- 100
2018-01-17 02:00:00 7.4 0 Calma 5 Noroeste -- -- -- 97
2018-01-17 01:00:00 8.6 3 Norte 7 Norte -- -- -- 97
2018-01-17 00:00:00 8.9 2 Norte 13 Norte -- -- -- 96
2018-01-16 23:00:00 9.4 6 Norte 16 Norte -- -- -- 94
2018-01-16 22:00:00 9.5 4 Norte 17 Norte -- -- -- 95
2018-01-16 21:00:00 9.6 4 Norte 18 Noroeste -- -- -- 91
2018-01-16 20:00:00 10.9 5 Noroeste 20 Noroeste -- -- -- 85
2018-01-16 19:00:00 12.2 6 Norte 15 Noroeste -- -- -- 79
2018-01-16 18:00:00 14.2 0 Calma 14 Norte -- -- -- 57
2018-01-16 17:00:00 17.1 8 Norte 17 Norte -- -- -- 54
2018-01-16 16:00:00 17 7 Norte 15 Noroeste -- -- -- 51
2018-01-16 15:00:00 16.4 3 Nordeste 10 Noroeste -- -- -- 41
2018-01-16 14:00:00 15.8 3 Norte 6 Nordeste -- -- -- 39
2018-01-16 13:00:00 13.9 0 Calma 9 Noroeste -- -- -- 37
2018-01-16 12:00:00 11.9 5 Oeste 10 Oeste -- -- -- 44
2018-01-16 11:00:00 10.3 3 Norte 8 Noroeste -- -- -- 65
2018-01-16 10:00:00 7.8 2 Oeste 8 Sudoeste -- -- -- 62
2018-01-16 09:00:00 5.6 0 Calma 7 Oeste -- -- -- 69
2018-01-16 08:00:00 5.8 0 Calma 9 Sudoeste -- -- -- 73
2018-01-16 07:00:00 4.2 0 Calma 7 Sudoeste -- -- -- 71
2018-01-16 06:00:00 3.8 4 Sudoeste 8 Sudoeste -- -- -- 78
2018-01-16 05:00:00 3.4 0 Calma 4 Sur -- -- -- 78
2018-01-16 04:00:00 3.8 3 Sur 5 Sur -- -- -- 81
2018-01-16 03:00:00 3.7 2 Oeste 4 Oeste -- -- -- 84
2018-01-16 02:00:00 3.7 0 Calma 5 Sudoeste -- -- -- 86
2018-01-16 01:00:00 3.7 0 Calma 4 Noroeste -- -- -- 86
2018-01-16 00:00:00 3.7 0 Calma 2 Sudeste -- -- -- 85
2018-01-15 23:00:00 4.2 0 Calma 5 Sudeste -- -- -- 81
2018-01-15 22:00:00 5 0 Calma 4 Noroeste -- -- -- 79
2018-01-15 21:00:00 5 0 Calma 4 Sudeste -- -- -- 75
2018-01-15 20:00:00 6 0 Calma 5 Noroeste -- -- -- 72
2018-01-15 19:00:00 7.7 0 Calma 8 Norte -- -- -- 65
2018-01-15 18:00:00 10.5 2 Norte 15 Norte -- -- -- 55
2018-01-15 17:00:00 13.1 4 Norte 17 Este -- -- -- 48
2018-01-15 16:00:00 13.3 7 Nordeste 18 Nordeste -- -- -- 48
2018-01-15 15:00:00 12.9 7 Nordeste 17 Nordeste -- -- -- 51
2018-01-15 14:00:00 12.4 8 Nordeste 21 Este -- -- -- 54
2018-01-15 13:00:00 11.9 8 Nordeste 21 Este -- -- -- 54
2018-01-15 12:00:00 10.7 4 Nordeste 21 Nordeste -- -- -- 62
2018-01-15 11:00:00 8.8 4 Nordeste 14 Este -- -- -- 70
2018-01-15 10:00:00 6 0 Calma 18 Norte -- -- -- 75
2018-01-15 09:00:00 4 5 Norte 17 Norte -- -- -- 83
2018-01-15 08:00:00 3.1 3 Norte 13 Norte -- -- -- 88
2018-01-15 07:00:00 3.1 3 Norte 11 Norte -- -- -- 90
2018-01-15 06:00:00 2.7 3 Norte 14 Noroeste -- -- -- 92
2018-01-15 05:00:00 1.5 0 Calma 6 Nordeste -- -- -- 96
2018-01-15 04:00:00 1.5 0 Calma 3 Noroeste -- -- -- 95
2018-01-15 03:00:00 1.9 0 Calma 6 Nordeste -- -- -- 94
2018-01-15 02:00:00 2.3 3 Nordeste 7 Este -- -- -- 94
2018-01-15 01:00:00 2.1 0 Calma 6 Norte -- -- -- 95
2018-01-15 00:00:00 2.8 3 Oeste 8 Noroeste -- -- -- 94
2018-01-14 23:00:00 2.9 0 Calma 6 Oeste -- -- -- 91
2018-01-14 22:00:00 3.4 0 Calma 5 Norte -- -- -- 88
2018-01-14 21:00:00 4.7 0 Calma 13 Noroeste -- -- -- 82
2018-01-14 20:00:00 6 5 Norte 15 Noroeste -- -- -- 76
2018-01-14 19:00:00 6.7 8 Norte 19 Norte -- -- -- 74
2018-01-14 18:00:00 7.7 9 Noroeste 22 Norte -- -- -- 71
2018-01-14 17:00:00 9 8 Noroeste 20 Norte -- -- -- 67
2018-01-14 16:00:00 9.3 8 Noroeste 21 Noroeste -- -- -- 66
2018-01-14 15:00:00 9.7 9 Noroeste 24 Noroeste -- -- -- 67
2018-01-14 14:00:00 8.9 8 Noroeste 21 Noroeste -- -- -- 73
2018-01-14 13:00:00 8.5 6 Norte 15 Norte -- -- -- 82
2018-01-14 12:00:00 6.5 2 Norte 6 Norte -- -- -- 100
2018-01-14 11:00:00 5.9 0 Calma 6 Norte -- -- -- 100
2018-01-14 10:00:00 5.3 0 Calma 2 Sur -- -- -- 100
2018-01-14 09:00:00 4.7 0 Calma 3 Sur -- -- -- 100
2018-01-14 08:00:00 4.8 0 Calma 3 Sudoeste -- -- -- 100
2018-01-14 07:00:00 4.5 0 Calma 8 Oeste -- -- -- 100
2018-01-14 06:00:00 4.7 3 Oeste 8 Oeste -- -- -- 100
2018-01-14 05:00:00 4.6 3 Oeste 8 Oeste -- -- -- 100
2018-01-14 04:00:00 3.3 0 Calma 8 Sudoeste -- -- -- 100
2018-01-14 03:00:00 4.3 4 Sudoeste 9 Oeste -- -- -- 100
2018-01-14 02:00:00 4.4 4 Sudoeste 9 Oeste -- -- -- 100
2018-01-14 01:00:00 5 3 Sudoeste 10 Sudoeste -- -- -- 100
2018-01-14 00:00:00 3.6 0 Calma 8 Oeste -- -- -- 100
2018-01-13 23:00:00 4.1 0 Calma 3 Sudoeste -- -- -- 99
2018-01-13 22:00:00 5.8 0 Calma 15 Sur -- -- -- 100
2018-01-13 21:00:00 6.8 8 Sudoeste 15 Sudoeste -- -- -- 100
2018-01-13 20:00:00 6.8 8 Sudoeste 17 Sudoeste -- -- -- 98
2018-01-13 19:00:00 7.6 7 Sudoeste 15 Sudoeste -- -- -- 94
2018-01-13 18:00:00 8.5 5 Sudoeste 13 Oeste -- -- -- 89
2018-01-13 17:00:00 8.9 7 Oeste 18 Oeste -- -- -- 90
2018-01-13 16:00:00 7.6 5 Noroeste 12 Noroeste -- -- -- 99
2018-01-13 15:00:00 6.5 4 Noroeste 13 Noroeste -- -- -- 99
2018-01-13 14:00:00 6.2 4 Sudeste 14 Sudeste -- -- -- 99
2018-01-13 13:00:00 5.6 5 Sur 13 Noroeste -- -- -- 98
2018-01-13 12:00:00 5.6 3 Sur 9 Sur -- -- -- 96
2018-01-13 11:00:00 5.8 0 Calma 5 Sur -- -- -- 95
2018-01-13 10:00:00 4.3 0 Calma 4 Este -- -- -- 95
2018-01-13 09:00:00 4.5 0 Calma 10 Sur -- -- -- 89
2018-01-13 08:00:00 4.5 4 Sur 8 Sur -- -- -- 88
2018-01-13 07:00:00 3.9 0 Calma 2 Oeste -- -- -- 93
2018-01-13 06:00:00 4 0 Calma 2 Sudoeste -- -- -- 94
2018-01-13 05:00:00 4 0 Calma 3 Oeste -- -- -- 93
2018-01-13 04:00:00 4.2 0 Calma 4 Sudoeste -- -- -- 93
2018-01-13 03:00:00 4.5 0 Calma 4 Oeste -- -- -- 92
2018-01-13 02:00:00 4.8 2 Sudoeste 4 Noroeste -- -- -- 93
2018-01-13 01:00:00 4.7 2 Oeste 4 Oeste -- -- -- 93
2018-01-13 00:00:00 4.4 0 Calma 2 Sudoeste -- -- -- 93
2018-01-12 23:00:00 4.5 0 Calma 2 Sur -- -- -- 92
2018-01-12 22:00:00 4.7 0 Calma 3 Oeste -- -- -- 88
2018-01-12 21:00:00 6 0 Calma 9 Sur -- -- -- 84
2018-01-12 20:00:00 7.5 6 Sudoeste 11 Sur -- -- -- 78
2018-01-12 19:00:00 7.9 4 Sur 7 Sur -- -- -- 69
2018-01-12 18:00:00 9.7 3 Sur 7 Este -- -- -- 66
2018-01-12 17:00:00 11.9 3 Sudoeste 7 Noroeste -- -- -- 53
2018-01-12 16:00:00 12.1 0 Calma 8 Noroeste -- -- -- 52
2018-01-12 15:00:00 12.1 3 Noroeste 11 Norte -- -- -- 52
2018-01-12 14:00:00 10.8 0 Calma 9 Nordeste -- -- -- 58
2018-01-12 13:00:00 10.9 3 Sudeste 12 Este -- -- -- 54
2018-01-12 12:00:00 9.5 2 Norte -- -- -- -- -- 64
2018-01-12 11:00:00 -- -- -- -- -- -- -- -- --
2018-01-12 10:00:00 -- 0 Calma -- -- -- -- -- --
2018-01-12 09:00:00 1.7 0 Calma 6 Sudoeste -- -- -- 95
2018-01-12 08:00:00 1.5 0 Calma 3 Oeste -- -- -- 96
2018-01-12 07:00:00 1.7 0 Calma 3 Oeste -- -- -- 94
2018-01-12 06:00:00 2.4 2 Sudoeste 9 Oeste -- -- -- 94
2018-01-12 05:00:00 3 4 Oeste 7 Oeste -- -- -- 92
2018-01-12 04:00:00 2.9 0 Calma 3 Norte -- -- -- 91
2018-01-12 03:00:00 3.5 0 Calma 5 Sudoeste -- -- -- 90
2018-01-12 02:00:00 4.2 0 Calma 12 Norte -- -- -- 88
2018-01-12 01:00:00 4.9 5 Oeste 10 Oeste -- -- -- 89
2018-01-12 00:00:00 5.3 4 Oeste 8 Oeste -- -- -- 86
2018-01-11 23:00:00 6.9 0 Calma 16 Noroeste -- -- -- 80
2018-01-11 22:00:00 7.1 9 Noroeste 15 Noroeste -- -- -- 80
2018-01-11 21:00:00 7.2 4 Oeste 14 Noroeste -- -- -- 80
2018-01-11 20:00:00 8.4 7 Noroeste 16 Noroeste -- -- -- 78
2018-01-11 19:00:00 8.9 9 Noroeste 15 Noroeste -- -- -- 76
2018-01-11 18:00:00 10.7 10 Norte 30 Noroeste -- -- -- 66
2018-01-11 17:00:00 10.8 10 Noroeste 27 Noroeste -- -- -- 66
2018-01-11 16:00:00 10.7 12 Noroeste 37 Noroeste -- -- -- 69
2018-01-11 15:00:00 11.2 13 Noroeste 34 Noroeste -- -- -- 69
2018-01-11 14:00:00 10.5 15 Noroeste 31 Norte -- -- -- 74
2018-01-11 13:00:00 9.5 15 Noroeste 31 Noroeste -- -- -- 87
2018-01-11 12:00:00 9.9 13 Noroeste 31 Noroeste -- -- -- 79
2018-01-11 11:00:00 9.1 16 Noroeste 35 Oeste -- -- -- 82
2018-01-11 10:00:00 7.4 11 Oeste 24 Oeste -- -- -- 89
2018-01-11 09:00:00 5.9 8 Oeste 19 Oeste -- -- -- 92
2018-01-11 08:00:00 6.2 11 Noroeste 22 Oeste -- -- -- 91
2018-01-11 07:00:00 6 10 Noroeste 23 Oeste -- -- -- 90
2018-01-11 06:00:00 5.4 6 Noroeste 13 Noroeste -- -- -- 92
2018-01-11 05:00:00 4.9 5 Oeste 12 Oeste -- -- -- 92
2018-01-11 04:00:00 5.5 5 Oeste 11 Noroeste -- -- -- 89
2018-01-11 03:00:00 6.3 6 Noroeste 14 Oeste -- -- -- 89
2018-01-11 02:00:00 6 6 Oeste 17 Noroeste -- -- -- 88
2018-01-11 01:00:00 6.8 6 Noroeste 17 Noroeste -- -- -- 86
2018-01-11 00:00:00 7.7 9 Noroeste 27 Noroeste -- -- -- 84
2018-01-10 23:00:00 8.6 13 Noroeste 27 Noroeste -- -- -- 84
2018-01-10 22:00:00 8.6 11 Noroeste 19 Noroeste -- -- -- 88
2018-01-10 21:00:00 9.5 8 Oeste 21 Noroeste -- -- -- 88
2018-01-10 20:00:00 10 13 Noroeste 31 Oeste -- -- -- 87
2018-01-10 19:00:00 11.8 12 Oeste 33 Noroeste -- -- -- 84
2018-01-10 18:00:00 13.2 9 Sudoeste 27 Sudoeste -- -- -- 71
2018-01-10 17:00:00 13.5 12 Sudoeste 29 Oeste -- -- -- 71
2018-01-10 16:00:00 13.7 7 Oeste 27 Sudoeste -- -- -- 76
2018-01-10 15:00:00 13.6 10 Oeste 28 Oeste -- -- -- 78
2018-01-10 14:00:00 12 9 Sudoeste 21 Sudoeste -- -- -- 88
2018-01-10 13:00:00 11.5 8 Oeste 24 Noroeste -- -- -- 91
2018-01-10 12:00:00 10.3 8 Oeste 16 Sudoeste -- -- -- 94
2018-01-10 11:00:00 9.4 4 Sudoeste 14 Sudoeste -- -- -- 100
2018-01-10 10:00:00 8 9 Sur 15 Sur -- -- -- 99
2018-01-10 09:00:00 7.7 5 Sudoeste 9 Sudoeste -- -- -- 100
2018-01-10 08:00:00 7.2 6 Oeste 15 Oeste -- -- -- 99
2018-01-10 07:00:00 6.6 5 Sudoeste 13 Oeste -- -- -- 100
2018-01-10 06:00:00 7.1 6 Oeste 16 Oeste -- -- -- 100
2018-01-10 05:00:00 7.7 9 Noroeste 15 Noroeste -- -- -- 100
2018-01-10 04:00:00 8.5 5 Oeste 13 Oeste -- -- -- 100
2018-01-10 03:00:00 9 8 Noroeste 14 Noroeste -- -- -- 100
2018-01-10 02:00:00 8.9 0 Calma 6 Noroeste -- -- -- 100
2018-01-10 01:00:00 8.9 0 Calma 4 Norte -- -- -- 100
2018-01-10 00:00:00 9.3 0 Calma 14 Sur -- -- -- 100
2018-01-09 23:00:00 9.6 4 Sudeste 12 Sudeste -- -- -- 100
2018-01-09 22:00:00 9.5 4 Sudeste 16 Sur -- -- -- 100
2018-01-09 21:00:00 9 5 Sudeste 10 Sur -- -- -- 100
2018-01-09 20:00:00 8.8 5 Sur 18 Sudeste -- -- -- 100
2018-01-09 19:00:00 8.4 4 Sur 14 Sur -- -- -- 100
2018-01-09 18:00:00 7.2 5 Sudeste 19 Sudeste -- -- -- 100
2018-01-09 17:00:00 6.7 4 Sudeste 22 Sudeste -- -- -- 100
2018-01-09 16:00:00 5.9 6 Sudeste 18 Sudeste -- -- -- 99
2018-01-09 15:00:00 5.5 3 Este 10 Sudeste -- -- -- 98
2018-01-09 14:00:00 5.6 4 Sudeste 12 Sudeste -- -- -- 96
2018-01-09 13:00:00 5.2 0 Calma 6 Sudoeste -- -- -- 97
2018-01-09 12:00:00 4.2 0 Calma 5 Sudeste -- -- -- 94
2018-01-09 11:00:00 3.5 0 Calma 10 Sur -- -- -- 93
2018-01-09 10:00:00 4.1 2 Sur 6 Sur -- -- -- 91
2018-01-09 09:00:00 3.4 3 Sur 7 Sudoeste 0 -- -- 92
2018-01-09 08:00:00 2.9 3 Sur 6 Sur 0 -- -- 92
2018-01-09 07:00:00 1.6 0 Calma 5 Sur 0 -- -- 92
2018-01-09 06:00:00 2.5 2 Sur 9 Sur 0 -- -- 88
2018-01-09 05:00:00 2.9 5 Sur 9 Sur 0 -- -- 87
2018-01-09 04:00:00 1.4 0 Calma 3 Sudoeste 0 -- -- 93
2018-01-09 03:00:00 1.7 0 Calma 2 Sudoeste 0 -- -- 92
2018-01-09 02:00:00 1.8 0 Calma 4 Oeste 0 -- -- 92
2018-01-09 01:00:00 2.1 0 Calma 6 Oeste 0 -- -- 91
2018-01-09 00:00:00 2.5 3 Oeste 6 Oeste 0 -- -- 90
2018-01-08 23:00:00 2.6 2 Oeste 5 Oeste 0 -- -- 90
2018-01-08 22:00:00 3 2 Oeste 4 Oeste 0 -- -- 90
2018-01-08 21:00:00 4.1 0 Calma 8 Este 0 -- -- 86
2018-01-08 20:00:00 5.7 2 Oeste 8 Norte 0 -- -- 81
2018-01-08 19:00:00 6.2 4 Noroeste 9 Noroeste 0 -- -- 78
2018-01-08 18:00:00 7.1 0 Calma 10 Norte 0 -- -- 74
2018-01-08 17:00:00 8.6 4 Norte 15 Nordeste 0 -- -- 68
2018-01-08 16:00:00 9.2 4 Nordeste 13 Nordeste 0 -- -- 70
2018-01-08 15:00:00 9.1 6 Nordeste 21 Nordeste 0 -- -- 72
2018-01-08 14:00:00 6.9 4 Norte 13 Noroeste 0 -- -- 90
2018-01-08 13:00:00 6.2 5 Norte 15 Norte 0 -- -- 90
2018-01-08 12:00:00 6.1 4 Norte 11 Norte 0 -- -- 93
2018-01-08 11:00:00 3.9 3 Nordeste 9 Este 0 -- -- 100
2018-01-08 10:00:00 3.5 0 Calma 9 Este 0 -- -- 100
2018-01-08 09:00:00 3.3 4 Nordeste 13 Nordeste 0 -- -- 100
2018-01-08 08:00:00 3.5 5 Nordeste 14 Este 0 -- -- 100
2018-01-08 07:00:00 3.8 6 Nordeste 14 Este 0 -- -- 100
2018-01-08 06:00:00 4.1 4 Nordeste 14 Este 0 -- -- 100
2018-01-08 05:00:00 4.1 5 Este 12 Este 0 -- -- 100
2018-01-08 04:00:00 4.1 3 Sur 12 Sudeste 0.4 -- -- 100
2018-01-08 03:00:00 4 6 Sudeste 13 Sudeste 0 -- -- 99
2018-01-08 02:00:00 4.2 3 Sudeste 12 Sudeste 0 -- -- 99
2018-01-08 01:00:00 4.1 0 Calma 8 Sudeste 0 -- -- 98
2018-01-08 00:00:00 3.9 0 Calma 5 Sur 0 -- -- 96
2018-01-07 23:00:00 4.2 4 Sur 12 Sur 0 -- -- 94
2018-01-07 22:00:00 4.5 4 Sudoeste 10 Sur 0 -- -- 95
2018-01-07 21:00:00 4.6 6 Sur 10 Sur 0 -- -- 96
2018-01-07 20:00:00 4.6 3 Sudeste 8 Sudoeste 0 -- -- 95
2018-01-07 19:00:00 4.7 6 Sur 11 Sur 0 -- -- 95
2018-01-07 18:00:00 4.9 5 Sur 13 Sur 0 -- -- 94
2018-01-07 17:00:00 5.4 3 Sudoeste 13 Oeste 0.2 -- -- 89
2018-01-07 16:00:00 6.3 5 Oeste 14 Noroeste 0 -- -- 76
2018-01-07 15:00:00 6.4 7 Norte 18 Noroeste 0 -- -- 71
2018-01-07 14:00:00 6.3 9 Norte 17 Noroeste 0 -- -- 73
2018-01-07 13:00:00 6.5 2 Norte 22 Noroeste 0 -- -- 72
2018-01-07 12:00:00 6 9 Norte 26 Noroeste 0 -- -- 78
2018-01-07 11:00:00 4.8 12 Noroeste 26 Noroeste 0 -- -- 78
2018-01-07 10:00:00 4.1 11 Norte 26 Norte 0 -- -- 82
2018-01-07 09:00:00 2.9 6 Noroeste 18 Noroeste 0 -- -- 88
2018-01-07 08:00:00 2.5 5 Oeste 15 Oeste 0 -- -- 91
2018-01-07 07:00:00 2.4 4 Oeste 10 Oeste 0 -- -- 90
2018-01-07 06:00:00 2.4 5 Oeste 22 Oeste 0 -- -- 91
2018-01-07 05:00:00 1.7 8 Oeste 21 Oeste 0 -- -- 93
2018-01-07 04:00:00 1.7 7 Oeste 18 Oeste 0 -- -- 88
2018-01-07 03:00:00 1.3 6 Oeste 13 Sudoeste 0 -- -- 88
2018-01-07 02:00:00 2 4 Oeste 14 Noroeste 0 -- -- 84
2018-01-07 01:00:00 2.6 5 Oeste 15 Oeste 0 -- -- 81
2018-01-07 00:00:00 3.3 5 Noroeste 18 Oeste 0 -- -- 77
2018-01-06 23:00:00 4 9 Noroeste 17 Oeste 0 -- -- 73
2018-01-06 22:00:00 4.3 7 Oeste 17 Noroeste 0 -- -- 71
2018-01-06 21:00:00 4.7 6 Oeste 16 Oeste 0 -- -- 67
2018-01-06 20:00:00 5.2 4 Oeste 18 Oeste 0 -- -- 63
2018-01-06 19:00:00 6.1 7 Noroeste 17 Noroeste 0 -- -- 59
2018-01-06 18:00:00 7.5 10 Noroeste 29 Noroeste 0 -- -- 54
2018-01-06 17:00:00 8.7 16 Noroeste 33 Noroeste 0 -- -- 50
2018-01-06 16:00:00 9.9 13 Noroeste 38 Noroeste 0 -- -- 47
2018-01-06 15:00:00 9.5 18 Noroeste 37 Noroeste 0 -- -- 47
2018-01-06 14:00:00 8.9 14 Noroeste 32 Noroeste 0 -- -- 58
2018-01-06 13:00:00 7.8 17 Noroeste 36 Noroeste 0 -- -- 65
2018-01-06 12:00:00 7.2 21 Noroeste 35 Noroeste 0 -- -- 73
2018-01-06 11:00:00 5.9 12 Noroeste 28 Noroeste 0 -- -- 84
2018-01-06 10:00:00 5.3 8 Noroeste 31 Norte 0 -- -- 91
2018-01-06 09:00:00 5.5 11 Noroeste 25 Norte 0 -- -- 94
2018-01-06 08:00:00 5.5 10 Noroeste 21 Noroeste 0 -- -- 96
2018-01-06 07:00:00 5.4 5 Norte 13 Norte 0 -- -- 100
2018-01-06 06:00:00 5.4 0 Calma 6 Norte 0 -- -- 99
2018-01-06 05:00:00 5.4 3 Nordeste 10 Nordeste 0 -- -- 99
2018-01-06 04:00:00 5.5 3 Nordeste 13 Norte 0 -- -- 99
2018-01-06 03:00:00 5.5 8 Nordeste 19 Este 0.4 -- -- 98
2018-01-06 02:00:00 6.1 5 Noroeste 29 Noroeste 0 -- -- 95
2018-01-06 01:00:00 8.3 15 Noroeste 30 Noroeste 0.4 -- -- 98
2018-01-06 00:00:00 8.9 3 Sudoeste 11 Sudoeste 0 -- -- 99
2018-01-05 23:00:00 9 4 Oeste 10 Oeste 0 -- -- 99
2018-01-05 22:00:00 8.9 4 Sudoeste 15 Sur 0 -- -- 98
2018-01-05 21:00:00 9.5 6 Sur 12 Sur 0 -- -- 98
2018-01-05 20:00:00 10 10 Oeste 23 Oeste 8 -- -- 98
2018-01-05 19:00:00 10.7 9 Sur 24 Sur 0.8 -- -- 95
2018-01-05 18:00:00 11.7 10 Sudoeste 27 Sur 0 -- -- 87
2018-01-05 17:00:00 11.7 10 Sudoeste 27 Sur 0 -- -- 88
2018-01-05 16:00:00 12.6 11 Sudoeste 28 Sudoeste 0 -- -- 78
2018-01-05 15:00:00 12.6 10 Sudoeste 23 Sudoeste 0 -- -- 74
2018-01-05 14:00:00 12 8 Sudoeste 24 Sudoeste 0 -- -- 84
2018-01-05 13:00:00 11.7 8 Sudoeste 21 Sudoeste 0 -- -- 88
2018-01-05 12:00:00 11.6 10 Sudoeste 18 Sudoeste 0 -- -- 85
2018-01-05 11:00:00 10.3 4 Sudoeste 15 Oeste 0 -- -- 94
2018-01-05 10:00:00 9.7 8 Oeste 19 Sudoeste 0 -- -- 95
2018-01-05 09:00:00 9.5 6 Sudoeste 13 Sudoeste 0 -- -- 96
2018-01-05 08:00:00 9.9 4 Sudoeste 14 Sudoeste 0 -- -- 93
2018-01-05 07:00:00 10.1 4 Sudoeste 12 Sudoeste 0 -- -- 89
2018-01-05 06:00:00 10.2 2 Oeste 8 Noroeste 0 -- -- 90
2018-01-05 05:00:00 10.3 2 Sudoeste 10 Oeste 0 -- -- 91
2018-01-05 04:00:00 10.5 3 Sudoeste 11 Sudoeste 0 -- -- 94
2018-01-05 03:00:00 10.8 5 Sudoeste 9 Sudoeste 0 -- -- 96
2018-01-05 02:00:00 10.9 4 Sudoeste 9 Sudoeste 0 -- -- 97
2018-01-05 01:00:00 11 4 Sudoeste 13 Sudoeste 0 -- -- 97
2018-01-05 00:00:00 11.1 5 Sudoeste 11 Sudoeste 0 -- -- 97
2018-01-04 23:00:00 11.1 6 Sudoeste 12 Sudoeste 0 -- -- 97
2018-01-04 22:00:00 11.2 7 Sur 12 Sudoeste 0 -- -- 95
2018-01-04 21:00:00 11.5 7 Sur 13 Sur 0 -- -- 95
2018-01-04 20:00:00 11.8 6 Sur 11 Sur 0 -- -- 94
2018-01-04 19:00:00 12.2 2 Sur 5 Sur 0 -- -- 91
2018-01-04 18:00:00 12.5 0 Calma 8 Sudeste 0 -- -- 89
2018-01-04 17:00:00 12.8 5 Sudeste 11 Sudeste 0 -- -- 86
2018-01-04 16:00:00 13.2 3 Sudeste 8 Noroeste 0 -- -- 85
2018-01-04 15:00:00 13.5 2 Norte 12 Noroeste 0 -- -- 85
2018-01-04 14:00:00 12.7 6 Noroeste 14 Noroeste 0 -- -- 87
2018-01-04 13:00:00 12.3 4 Noroeste 11 Noroeste 0 -- -- 90
2018-01-04 12:00:00 11.9 4 Noroeste 9 Noroeste 0 -- -- 91
2018-01-04 11:00:00 11.8 3 Norte 9 Norte 0 -- -- 91
2018-01-04 10:00:00 11.5 2 Norte 8 Noroeste 0 -- -- 94
2018-01-04 09:00:00 11.2 2 Oeste 5 Oeste 0 -- -- 96
2018-01-04 08:00:00 11.1 0 Calma 4 Norte 0 -- -- 96
2018-01-04 07:00:00 10.9 0 Calma 10 Norte 0 -- -- 98
2018-01-04 06:00:00 10.2 0 Calma 3 Sur 0 -- -- 98
2018-01-04 05:00:00 10.6 0 Calma 4 Sudoeste 0 -- -- 99
2018-01-04 04:00:00 9.6 0 Calma 4 Oeste 0 -- -- 97
2018-01-04 03:00:00 9.8 0 Calma 4 Noroeste 0 -- -- 96
2018-01-04 02:00:00 10.6 0 Calma 13 Norte 0 -- -- 93
2018-01-04 01:00:00 11.6 5 Norte 18 Norte 0 -- -- 90
2018-01-04 00:00:00 11.7 3 Norte 10 Norte 0 -- -- 90
2018-01-03 23:00:00 11.7 0 Calma 12 Norte 0 -- -- 90
2018-01-03 22:00:00 11.4 4 Norte 13 Norte 0 -- -- 92
2018-01-03 21:00:00 10.6 0 Calma 9 Norte 0 -- -- 93
2018-01-03 20:00:00 10.7 2 Norte 8 Norte 0 -- -- 90
2018-01-03 19:00:00 12.3 0 Calma 8 Noroeste 0 -- -- 83
2018-01-03 18:00:00 14.4 3 Norte 14 Norte 0 -- -- 76
2018-01-03 17:00:00 16.7 6 Norte 18 Este 0 -- -- 70
2018-01-03 16:00:00 18.9 4 Nordeste 14 Este 0 -- -- 64
2018-01-03 15:00:00 19.3 5 Este 12 Este 0 -- -- 61
2018-01-03 14:00:00 18.6 3 Norte 13 Nordeste 0 -- -- 63
2018-01-03 13:00:00 17.4 5 Nordeste 10 Norte 0 -- -- 69
2018-01-03 12:00:00 14.9 4 Nordeste 11 Nordeste 0 -- -- 78
2018-01-03 11:00:00 12.9 3 Nordeste 8 Nordeste 0 -- -- 88
2018-01-03 10:00:00 11.7 3 Norte 16 Norte 0 -- -- 91
2018-01-03 09:00:00 11.4 4 Norte 17 Norte 0 -- -- 92
2018-01-03 08:00:00 11.4 6 Norte 15 Norte 0 -- -- 93
2018-01-03 07:00:00 11.3 5 Norte 15 Noroeste 0 -- -- 92
2018-01-03 06:00:00 11 3 Norte 16 Norte 0 -- -- 94
2018-01-03 05:00:00 10.3 2 Norte 10 Norte 0 -- -- 94
2018-01-03 04:00:00 10.4 0 Calma 6 Este 0 -- -- 94
2018-01-03 03:00:00 10.6 3 Norte 11 Norte 0 -- -- 93
2018-01-03 02:00:00 10.2 0 Calma 18 Norte 0 -- -- 92
2018-01-03 01:00:00 10.7 7 Norte 21 Norte 0 -- -- 91
2018-01-03 00:00:00 10.7 7 Noroeste 20 Norte 0 -- -- 89
2018-01-02 23:00:00 10 5 Norte 17 Norte 0 -- -- 91
2018-01-02 22:00:00 10 4 Noroeste 9 Norte 0 -- -- 90
2018-01-02 21:00:00 10.6 3 Norte 13 Norte 0 -- -- 84
2018-01-02 20:00:00 11.6 5 Norte 14 Norte 0 -- -- 81
2018-01-02 19:00:00 11.6 3 Nordeste 8 Norte 0 -- -- 80
2018-01-02 18:00:00 13.7 3 Norte 10 Noroeste 0 -- -- 70
2018-01-02 17:00:00 15.3 3 Norte 14 Noroeste 0 -- -- 64
2018-01-02 16:00:00 16.8 4 Norte 19 Norte 0 -- -- 62
2018-01-02 15:00:00 17.3 6 Nordeste 18 Norte 0 -- -- 57
2018-01-02 14:00:00 16.2 4 Nordeste 11 Nordeste 0 -- -- 61
2018-01-02 13:00:00 13.9 6 Norte 13 Norte 0 -- -- 71
2018-01-02 12:00:00 12 5 Noroeste 14 Noroeste 0 -- -- 76
2018-01-02 11:00:00 10.6 0 Calma 6 Noroeste 0 -- -- 80
2018-01-02 10:00:00 8 0 Calma 6 Noroeste 0 -- -- 89
2018-01-02 09:00:00 5.7 3 Noroeste 10 Noroeste 0 -- -- 93
2018-01-02 08:00:00 5.1 2 Oeste 5 Noroeste 0 -- -- 94
2018-01-02 07:00:00 5.2 0 Calma 3 Noroeste 0 -- -- 94
2018-01-02 06:00:00 5.5 0 Calma 5 Noroeste 0 -- -- 94
2018-01-02 05:00:00 5.6 0 Calma 8 Norte 0 -- -- 92
2018-01-02 04:00:00 6.7 0 Calma 10 Oeste 0 -- -- 90
2018-01-02 03:00:00 7.2 4 Noroeste 10 Noroeste 0 -- -- 89
2018-01-02 02:00:00 7.1 4 Oeste 10 Noroeste 0 -- -- 88
2018-01-02 01:00:00 7.4 0 Calma 6 Norte 0 -- -- 84
2018-01-02 00:00:00 7.3 3 Sudoeste 7 Sudoeste 0 -- -- 84
2018-01-01 23:00:00 7.3 0 Calma 4 Noroeste 0 -- -- 84
2018-01-01 22:00:00 8 0 Calma 11 Norte 0 -- -- 78
2018-01-01 21:00:00 9.7 7 Noroeste 18 Noroeste 0 -- -- 71
2018-01-01 20:00:00 8.2 3 Noroeste 9 Norte 0 -- -- 70
2018-01-01 19:00:00 10.5 2 Norte 16 Noroeste 0 -- -- 53
2018-01-01 18:00:00 12.5 9 Noroeste 17 Oeste 0 -- -- 50
2018-01-01 17:00:00 14.3 9 Noroeste 16 Noroeste 0 -- -- 41
2018-01-01 16:00:00 15.4 9 Noroeste 21 Noroeste 0 -- -- 38
2018-01-01 15:00:00 15 9 Noroeste 19 Noroeste 0 -- -- 35
2018-01-01 14:00:00 14.2 6 Noroeste 11 Noroeste 0 -- -- 41
2018-01-01 13:00:00 12.5 4 Noroeste 18 Noroeste 0 -- -- 48
2018-01-01 12:00:00 10.9 11 Noroeste 19 Noroeste 0 -- -- 59
2018-01-01 11:00:00 8.9 8 Oeste 19 Noroeste 0 -- -- 72
2018-01-01 10:00:00 7.2 3 Oeste 9 Sudoeste 0 -- -- 78
2018-01-01 09:00:00 4.5 0 Calma 11 Oeste 0 -- -- 84
2018-01-01 08:00:00 5.2 5 Sudoeste 11 Sudoeste 0 -- -- 90
2018-01-01 07:00:00 4.3 0 Calma 10 Sudeste 0 -- -- 91
2018-01-01 06:00:00 6 6 Sudeste 14 Sudeste 0 -- -- 92
2018-01-01 05:00:00 5.1 0 Calma 6 Este 0 -- -- 88
2018-01-01 04:00:00 5.9 4 Nordeste 13 Norte 0 -- -- 89
2018-01-01 03:00:00 7 5 Norte 16 Norte 0 -- -- 88
2018-01-01 02:00:00 7.6 0 Calma 23 Noroeste 0 -- -- 85
2018-01-01 01:00:00 8.8 6 Noroeste 25 Noroeste 0 -- -- 80
2018-01-01 00:00:00 9.1 12 Noroeste 23 Noroeste 0 -- -- 80
2017-12-31 23:00:00 8.7 4 Noroeste 17 Nordeste 0 -- -- 84
2017-12-31 22:00:00 9.4 7 Noroeste 17 Noroeste 0 -- -- 83
2017-12-31 21:00:00 10.1 9 Noroeste 17 Noroeste 0 -- -- 87
2017-12-31 20:00:00 11.4 9 Noroeste 23 Noroeste 0 -- -- 94
2017-12-31 19:00:00 12.7 10 Noroeste 23 Sudoeste 0 -- -- 84
2017-12-31 18:00:00 13.2 8 Oeste 18 Sudoeste 0 -- -- 83
2017-12-31 17:00:00 13.6 10 Sudoeste 25 Sudoeste 0 -- -- 77
2017-12-31 16:00:00 14 11 Oeste 29 Sudoeste 0 -- -- 72
2017-12-31 15:00:00 14.3 12 Oeste 30 Oeste 0 -- -- 71
2017-12-31 14:00:00 13.5 12 Sudoeste 26 Oeste 0 -- -- 74
2017-12-31 13:00:00 13.3 9 Oeste 18 Oeste 0 -- -- 76
2017-12-31 12:00:00 12.8 6 Sudoeste 17 Oeste 0 -- -- 82
2017-12-31 11:00:00 11.4 4 Oeste 10 Sudoeste 0 -- -- 90
2017-12-31 10:00:00 10.3 0 Calma 6 Sudoeste 0 -- -- 93
2017-12-31 09:00:00 9.8 2 Sudoeste 6 Oeste 0 -- -- 93
2017-12-31 08:00:00 10.4 0 Calma 9 Sur 0 -- -- 91
2017-12-31 07:00:00 9.6 2 Sudoeste 5 Sudoeste 0 -- -- 94
2017-12-31 06:00:00 9.9 0 Calma 5 Sudoeste 0 -- -- 92
2017-12-31 05:00:00 9.9 3 Oeste 4 Oeste 0 -- -- 94
2017-12-31 04:00:00 9.8 0 Calma 4 Sudoeste 0 -- -- 94
2017-12-31 03:00:00 9.8 0 Calma 6 Sudoeste 0 -- -- 91
2017-12-31 02:00:00 10 0 Calma 6 Sudoeste 0 -- -- 91
2017-12-31 01:00:00 9.4 0 Calma 4 Oeste 0 -- -- 93